[[{"header":{"parameterUnit":"m.s-1","parameterCategory":1,"la1":30.2991,"la2":30.254,"lo1":-89.0895,"lo2":-89.0444,"dy":0.0017,"dx":0.0017,"nx":28,"ny":28,"refTime":"2025-02-11T03:00:00:Z","depth":0,"parameterNumber":2,"parameterNumberName":"U-component_of_WINDS"},"data":[0,0,0,0,0,0,0,0,0,0,0,0,0,0,0,0,0,0,0,0,0,0,0,0,0,0,0,0,0,0,0,0,0,0,0,0,0,0,0,0,0,0,0,0,0,0,0,0,0,0,0,0,0,0,0,0,0,0,-0.7818,-0.7819,0,-0.7905,-0.7906,-0.7907,-0.7952,-0.7952,-0.7952,-0.7952,-0.8039,-0.8041,-0.8043,0,0,0,0,0,0,0,0,0,0,0,0,0,-0.7689,-0.7691,-0.7818,-0.7819,-0.782,-0.7905,-0.7906,-0.7907,-0.7952,-0.7952,-0.7952,-0.7952,-0.8038,-0.8041,-0.8044,0,0,0,0,0,0,0,0,0,0,0,0,0,-0.7757,-0.7692,-0.7818,-0.7853,-0.7857,-0.7905,-0.7906,-0.7908,-0.7952,-0.7952,-0.7952,-0.7952,-0.8037,-0.8041,-0.8044,-0.8063,0,0,-0.8054,-0.8056,0,0,0,0,0,0,0,0,-0.7754,-0.7762,-0.7847,-0.7851,-0.7855,-0.7918,-0.7893,-0.796,-0.7952,-0.7916,-0.7952,-0.7952,-0.7998,-0.8005,-0.8021,-0.8068,-0.8071,-0.8055,-0.8057,-0.8058,-0.8059,0,0,0,0,0,0,0,-0.7749,-0.7759,-0.7853,-0.7848,-0.7853,-0.7863,-0.7873,-0.7906,-0.7955,-0.7919,-0.7922,-0.7932,-0.8001,-0.8018,-0.8024,-0.8073,-0.8055,-0.8058,-0.806,-0.8061,-0.8139,-0.8139,0,0,0,0,0,0,-0.7739,-0.7754,-0.785,-0.7855,-0.7804,-0.7866,-0.7877,-0.7897,-0.7955,-0.7964,-0.7932,-0.7934,-0.8012,-0.8019,-0.8027,-0.8053,-0.8058,-0.8061,-0.8063,-0.8139,-0.8139,-0.8139,0,0,0,0,0,0,-0.7736,-0.7747,-0.7846,-0.7806,-0.7819,-0.7868,-0.7891,-0.7899,-0.7916,-0.7965,-0.7974,-0.794,-0.8012,-0.8022,-0.8054,-0.8057,-0.8063,-0.8066,-0.8139,-0.8139,-0.8139,-0.8106,0,0,0,0,0,0,-0.7732,-0.7745,-0.7754,-0.7806,-0.7821,-0.7873,-0.7891,-0.7901,-0.7922,-0.7925,-0.7975,-0.7984,-0.8013,-0.8049,-0.8057,-0.8062,-0.8069,-0.8139,-0.8139,-0.8139,-0.8107,-0.8105,-0.8103,0,0,0,0,0,-0.7727,-0.7741,-0.7754,-0.7765,-0.7833,-0.7873,-0.7882,-0.7916,-0.7922,-0.7931,-0.7962,-0.7982,-0.8055,-0.8052,-0.8062,-0.8067,-0.8139,-0.8139,-0.8139,-0.8108,-0.8106,-0.8103,0,0,0,0,0,0,-0.7688,-0.7748,-0.7764,-0.7795,-0.7828,-0.788,-0.7892,-0.7912,-0.7944,-0.7946,-0.7986,-0.7997,-0.8025,-0.8049,-0.8045,-0.8089,-0.8099,-0.8101,-0.8072,-0.807,-0.8068,-0.8062,-0.8072,0,0,0,0,0,-0.7683,-0.7711,-0.7762,-0.7784,-0.7801,-0.7843,-0.7862,-0.7885,-0.7921,-0.7936,-0.7969,-0.8003,-0.8034,-0.8053,-0.8084,-0.8111,-0.8122,-0.8119,-0.8117,-0.8115,-0.8117,-0.8132,-0.8132,-0.8139,-0.8139,-0.8139,0,0,-0.7673,-0.7709,-0.7724,-0.7777,-0.7806,-0.7834,-0.7855,-0.7883,-0.7904,-0.794,-0.7973,-0.7998,-0.8039,-0.8068,-0.8083,-0.8089,-0.8117,-0.8116,-0.8114,-0.8116,-0.8132,-0.8132,-0.8131,-0.8139,-0.8139,-0.8139,0,0,-0.7668,-0.7699,-0.7721,-0.7749,-0.7793,-0.7821,-0.7826,-0.7875,-0.7894,-0.7927,-0.7955,-0.7979,-0.8031,-0.8059,-0.808,-0.8085,-0.8104,-0.8094,-0.8083,-0.8098,-0.8097,-0.8097,-0.8099,-0.8099,-0.8095,-0.8095,-0.8095,0,-0.765,-0.7693,-0.773,-0.7756,-0.7779,-0.7813,-0.7835,-0.7861,-0.7911,-0.7926,-0.7932,-0.7998,-0.8028,-0.8064,-0.8065,-0.8081,-0.8087,-0.8088,-0.8095,-0.8095,-0.8095,-0.8097,-0.8098,-0.8093,-0.8093,-0.8094,-0.8094,0,-0.7669,-0.7698,-0.771,-0.7759,-0.7783,-0.7807,-0.7846,-0.7866,-0.7887,-0.7914,-0.7947,-0.7984,-0.8022,-0.8033,-0.8053,-0.8072,-0.8074,-0.8087,-0.8098,-0.8092,-0.8095,-0.8096,-0.8091,-0.8092,-0.8092,-0.8092,0,0,-0.7643,-0.7711,-0.7715,-0.7737,-0.7787,-0.781,-0.7835,-0.7874,-0.789,-0.7923,-0.7945,-0.7988,-0.8,-0.8024,-0.8048,-0.8061,-0.8062,-0.8072,-0.8074,-0.8069,-0.8084,-0.8074,-0.8075,-0.8075,-0.8075,-0.8076,-0.8081,0,-0.7645,-0.7693,-0.7726,-0.7761,-0.7788,-0.7821,-0.7843,-0.7875,-0.7901,-0.7928,-0.7956,-0.7986,-0.8,-0.8014,-0.8028,-0.8059,-0.8066,-0.8059,-0.8096,-0.8096,-0.8085,-0.8076,-0.8066,-0.8069,-0.8082,-0.8082,-0.8082,0,-0.7655,-0.7688,-0.7726,-0.7772,-0.7785,-0.7804,-0.7842,-0.7867,-0.7904,-0.7922,-0.7948,-0.7972,-0.8,-0.8008,-0.8046,-0.8041,-0.8058,-0.8075,-0.8076,-0.8081,-0.8089,-0.808,-0.8071,-0.8071,-0.8084,-0.8084,-0.8084,0,-0.7633,-0.7686,-0.7716,-0.7734,-0.7789,-0.7801,-0.7825,-0.7862,-0.7883,-0.7916,-0.7929,-0.7964,-0.7983,-0.801,-0.8043,-0.8046,-0.8077,-0.8088,-0.8093,-0.8092,-0.8098,-0.8097,-0.8091,-0.8108,-0.8108,-0.8108,-0.8108,0,-0.7632,-0.7654,-0.7706,-0.7724,-0.7749,-0.7786,-0.781,-0.7836,-0.7869,-0.7892,-0.7922,-0.7943,-0.7985,-0.8011,-0.8037,-0.8064,-0.8072,-0.8087,-0.8094,-0.8085,-0.8083,-0.8097,-0.8097,-0.8109,-0.8109,-0.8109,-0.8109,0,-0.7611,-0.7647,-0.7681,-0.773,-0.7743,-0.7759,-0.7801,-0.782,-0.7847,-0.7876,-0.7885,-0.7927,-0.7959,-0.7995,-0.8039,-0.8056,-0.8082,-0.8091,-0.8069,-0.8073,-0.8075,-0.8074,-0.8077,-0.8079,-0.8095,-0.8095,-0.8095,0,-0.7609,-0.7626,-0.7677,-0.7695,-0.7718,-0.7746,-0.7768,-0.7805,-0.7825,-0.7869,-0.7882,-0.7916,-0.7946,-0.7995,-0.803,-0.8063,-0.8074,-0.8072,-0.8079,-0.8069,-0.8074,-0.8072,-0.8074,-0.807,-0.807,-0.807,-0.8069,0,-0.7601,-0.7617,-0.7647,-0.7683,-0.7708,-0.7738,-0.7769,-0.7781,-0.7824,-0.7846,-0.7879,-0.7902,-0.7947,-0.798,-0.8018,-0.8042,-0.8062,-0.8067,-0.807,-0.8061,-0.8047,-0.8054,-0.8064,-0.8067,-0.8067,-0.8067,-0.8067,-0.8068,-0.7589,-0.7606,-0.7644,-0.7676,-0.7704,-0.7732,-0.7751,-0.7781,-0.7809,-0.7849,-0.7869,-0.7902,-0.7938,-0.7991,-0.8014,-0.804,-0.8046,-0.805,-0.8051,-0.8052,-0.8049,-0.8043,-0.8047,-0.8047,-0.8047,-0.8047,-0.8047,0,-0.7583,-0.7609,-0.7638,-0.768,-0.7705,-0.7723,-0.7758,-0.7777,-0.7806,-0.7838,-0.7867,-0.7905,-0.7937,-0.7974,-0.8009,-0.8022,-0.8033,-0.803,-0.8029,-0.8035,-0.8041,-0.8035,-0.8021,-0.8021,-0.8021,-0.8021,-0.8021,-0.8021,-0.7582,-0.7611,-0.7632,-0.7675,-0.7701,-0.7734,-0.7752,-0.7778,-0.7804,-0.7845,-0.7872,-0.7896,-0.793,-0.7968,-0.7998,-0.8008,-0.8019,-0.8014,-0.8026,-0.8032,-0.8034,-0.8036,-0.8031,-0.8016,-0.8016,-0.8018,-0.8018,-0.8018]},{"header":{"parameterUnit":"m.s-1","parameterCategory":1,"la1":30.2991,"la2":30.254,"lo1":-89.0895,"lo2":-89.0444,"dy":0.0017,"dx":0.0017,"nx":28,"ny":28,"refTime":"2025-02-11T03:00:00:Z","depth":0,"parameterNumber":3,"parameterNumberName":"V-component_of_WINDS"},"data":[0,0,0,0,0,0,0,0,0,0,0,0,0,0,0,0,0,0,0,0,0,0,0,0,0,0,0,0,0,0,0,0,0,0,0,0,0,0,0,0,0,0,0,0,0,0,0,0,0,0,0,0,0,0,0,0,0,0,6.3959,6.396,0,6.4117,6.4119,6.4121,6.4136,6.4134,6.4133,6.4131,6.4297,6.4303,6.4308,0,0,0,0,0,0,0,0,0,0,0,0,0,6.3674,6.3679,6.3959,6.3961,6.3963,6.4117,6.4119,6.4121,6.4136,6.4134,6.4132,6.413,6.4295,6.4302,6.4309,0,0,0,0,0,0,0,0,0,0,0,0,0,6.3812,6.3681,6.3958,6.3989,6.3993,6.4117,6.4119,6.4122,6.4137,6.4134,6.4132,6.4129,6.4292,6.4301,6.431,6.4415,0,0,6.4337,6.4341,0,0,0,0,0,0,0,0,6.3804,6.3822,6.3982,6.3987,6.3992,6.4104,6.408,6.422,6.4137,6.4082,6.4131,6.4128,6.4235,6.4248,6.4284,6.4423,6.443,6.4338,6.4344,6.4347,6.435,0,0,0,0,0,0,0,6.3794,6.3816,6.4022,6.3985,6.399,6.3996,6.4013,6.4106,6.4171,6.4087,6.4088,6.4107,6.4237,6.4275,6.4288,6.4433,6.4338,6.4346,6.4351,6.4355,6.4671,6.4674,0,0,0,0,0,0,6.3779,6.3807,6.4016,6.4026,6.389,6.4003,6.4022,6.4071,6.417,6.4182,6.4109,6.4107,6.4261,6.4277,6.4294,6.4427,6.4347,6.4356,6.4361,6.4668,6.4672,6.4675,0,0,0,0,0,0,6.3772,6.3797,6.401,6.3917,6.3945,6.4011,6.4065,6.4075,6.4113,6.4186,6.4198,6.4135,6.426,6.4281,6.4386,6.4433,6.436,6.4368,6.4665,6.4669,6.4674,6.4693,0,0,0,0,0,0,6.3764,6.3795,6.3834,6.3918,6.395,6.4098,6.4068,6.408,6.4128,6.4127,6.4215,6.4227,6.4259,6.4372,6.4395,6.4444,6.4375,6.4661,6.4667,6.4672,6.4688,6.4697,6.4705,0,0,0,0,0,6.3754,6.3833,6.3836,6.3861,6.4,6.4101,6.4119,6.4154,6.4132,6.4173,6.4221,6.4224,6.4424,6.4383,6.4408,6.4461,6.4658,6.4665,6.4672,6.4684,6.4696,6.4705,0,0,0,0,0,0,6.3753,6.3844,6.3849,6.3957,6.4021,6.4103,6.4156,6.4164,6.4237,6.4233,6.4274,6.4294,6.4398,6.444,6.4393,6.4571,6.4539,6.4551,6.454,6.4551,6.4559,6.4549,6.4382,0,0,0,0,0,6.3765,6.3838,6.3914,6.4002,6.4034,6.4089,6.4134,6.4156,6.4225,6.4252,6.4307,6.4375,6.4453,6.4504,6.458,6.4693,6.4715,6.4743,6.4751,6.4758,6.4769,6.4836,6.4851,6.4698,6.4698,6.4697,0,0,6.3791,6.385,6.3893,6.4004,6.4056,6.4133,6.4112,6.4193,6.4251,6.4265,6.4368,6.4411,6.4489,6.46,6.4651,6.4638,6.4816,6.4766,6.4771,6.4779,6.4845,6.4859,6.4872,6.4702,6.4701,6.4701,0,0,6.3879,6.3929,6.401,6.4063,6.4143,6.4179,6.4199,6.4281,6.431,6.4413,6.4426,6.4497,6.4629,6.4686,6.4732,6.4845,6.4852,6.4868,6.4913,6.4979,6.4991,6.5002,6.5046,6.5061,6.4878,6.4878,6.4878,0,6.3902,6.4017,6.4051,6.4133,6.4183,6.4198,6.4282,6.4332,6.4432,6.4467,6.445,6.462,6.4673,6.48,6.4828,6.4863,6.4889,6.4859,6.4986,6.4998,6.5009,6.5051,6.5067,6.488,6.488,6.488,6.4879,0,6.4044,6.4123,6.4179,6.4276,6.4332,6.4414,6.4463,6.4516,6.4533,6.4572,6.468,6.4745,6.4836,6.4867,6.4884,6.4998,6.4987,6.4977,6.4947,6.5024,6.5065,6.5081,6.4882,6.4882,6.4881,6.4881,0,0,6.4135,6.4251,6.4272,6.4318,6.4407,6.4471,6.4555,6.4644,6.469,6.4759,6.4834,6.4947,6.494,6.4992,6.5016,6.5073,6.5163,6.5057,6.506,6.5078,6.5297,6.5306,6.5324,6.5167,6.517,6.5173,6.5291,0,6.4236,6.4386,6.4421,6.4551,6.4627,6.4644,6.4718,6.4782,6.4822,6.4894,6.4937,6.5019,6.5001,6.5033,6.509,6.514,6.5208,6.5131,6.524,6.5244,6.5224,6.5345,6.5354,6.5463,6.5307,6.531,6.5312,0,6.4374,6.4447,6.4585,6.4668,6.4701,6.4767,6.4853,6.492,6.4995,6.502,6.508,6.5099,6.519,6.5153,6.5282,6.5229,6.5276,6.5307,6.5313,6.5327,6.5285,6.5366,6.5498,6.5515,6.5337,6.5335,6.5333,0,6.4433,6.4565,6.4666,6.4704,6.4802,6.4849,6.4892,6.4964,6.5016,6.5092,6.5127,6.5212,6.5259,6.5326,6.5369,6.5337,6.5496,6.5461,6.5522,6.5521,6.5557,6.5555,6.5702,6.5581,6.5581,6.558,6.558,0,6.4544,6.4628,6.4694,6.4756,6.4852,6.4892,6.4987,6.503,6.5095,6.5168,6.5186,6.5255,6.5305,6.5381,6.5415,6.5519,6.5539,6.5565,6.5573,6.5565,6.5562,6.5598,6.5594,6.5585,6.5584,6.5583,6.5582,0,6.4627,6.4673,6.4784,6.4868,6.4892,6.496,6.5033,6.5095,6.5135,6.5228,6.5252,6.5315,6.5406,6.5455,6.5568,6.5591,6.5709,6.5712,6.5684,6.5689,6.5748,6.5744,6.5927,6.5955,6.5811,6.5812,6.5814,0,6.4696,6.4762,6.4853,6.4903,6.4948,6.5027,6.5081,6.5123,6.5179,6.5271,6.5323,6.5415,6.5491,6.5636,6.5694,6.5782,6.5789,6.5847,6.5803,6.5794,6.5795,6.5792,6.5801,6.5856,6.5857,6.5858,6.5859,0,6.4816,6.4837,6.4913,6.4999,6.5062,6.5132,6.52,6.5241,6.5294,6.5357,6.545,6.5509,6.5626,6.5718,6.5811,6.5858,6.587,6.5873,6.5892,6.5886,6.5869,6.5884,6.571,6.5869,6.5868,6.5867,6.5867,6.5866,6.4898,6.4958,6.5033,6.5119,6.5175,6.5239,6.5303,6.5352,6.543,6.5528,6.5548,6.5648,6.5724,6.585,6.59,6.598,6.5969,6.5996,6.6003,6.601,6.6015,6.5854,6.5996,6.5996,6.5996,6.5996,6.5996,0,6.5022,6.5071,6.5149,6.5246,6.5314,6.5316,6.5394,6.5451,6.5538,6.5608,6.5683,6.5792,6.5882,6.5947,6.604,6.6092,6.61,6.6116,6.6114,6.6126,6.6018,6.5994,6.6108,6.6108,6.6108,6.6108,6.6108,6.6108,6.5095,6.52,6.5229,6.5363,6.5412,6.5509,6.5553,6.5614,6.567,6.5791,6.5866,6.5908,6.5977,6.6075,6.616,6.6177,6.6212,6.6228,6.6246,6.6145,6.6133,6.6122,6.6099,6.6234,6.6234,6.6348,6.6349,6.635]}]]